Home   Weather   Voronezh   Past weeks

Flag for Russia Past Weather in Voronezh, Russia — Yesterday and Last 2 Weeks

Now
59 °F

Sunny.


Feels Like: 59 °F
Forecast: 60 / 88 °F
Wind: 1 mph from North

Location: Voronez

Current Time: Aug 20, 2017 at 7:03:25 am

Latest Report: Aug 20, 2017 at 6:30 am


Visibility: 10 mi

Pressure: 30.24 "Hg

Humidity: 77%

Dew Point: 52 °F

Location of VoronezhLocation

Past Weather in Voronezh — Graph

°F

Voronezh Temperature Yesterday

Maximum temperature yesterday: 88 °F (at 1:00 pm)
Minimum temperature yesterday: 57 °F (at 5:00 am)
Average temperature yesterday: 73 °F

High & Low Weather Summary for the Past Weeks

 TemperatureHumidityPressure
High90 °F (Aug 12, 3:30 pm)94% (Aug 8, 4:30 pm)30.33 "Hg (Aug 8, 4:30 pm)
Low52 °F (Aug 11, 2:30 am)21% (Aug 14, 3:30 pm)29.95 "Hg (Aug 12, 3:30 pm)
Average72 °F57%30.14 "Hg
* Reported Aug 8 4:00 pm — Aug 20 5:30 am, Voronezh. Weather by CustomWeather, © 2017

Note: Actual official high and low records may vary slightly from our data, if they occured in-between our weather recording intervals... More about our weather records

Advertising

Voronezh Weather History for the Previous 24 Hours

Scroll right to see more
 ConditionsComfort  
Time TempWeatherWind HumidityBarometerVisibility
5:30 am
Sun, Aug 20
54 °FSunny.No wind82%30.24 "Hg10 mi
5:00 am54 °FClear.No wind82%30.24 "Hg10 mi
4:30 am55 °FClear.No wind77%30.24 "Hg10 mi
4:00 am55 °FClear.No wind82%30.24 "Hg10 mi
3:00 am57 °FClear.No wind77%30.24 "Hg10 mi
2:30 am57 °FClear.No wind77%30.24 "Hg10 mi
2:00 am59 °FClear.No wind72%30.24 "Hg10 mi
1:30 am59 °FClear.No wind72%30.24 "Hg10 mi
1:00 am59 °FClear.No wind77%30.24 "Hg10 mi
12:30 am61 °FClear.No wind72%30.24 "Hg10 mi
12:00 am61 °FClear.No wind72%30.24 "Hg10 mi
11:30 pm
Sat, Aug 19
63 °FClear.No wind64%30.24 "Hg10 mi
11:00 pm63 °FClear.No wind68%30.21 "Hg10 mi
10:30 pm64 °FClear.No wind64%30.24 "Hg10 mi
10:00 pm66 °FClear.No wind56%30.24 "Hg10 mi
9:30 pm68 °FClear.No wind56%30.24 "Hg10 mi
9:00 pm68 °FClear.No wind56%30.24 "Hg10 mi
8:30 pm70 °FClear.No wind53%30.24 "Hg10 mi
8:00 pm72 °FClear.3 mph50%30.21 "Hg10 mi
7:30 pm73 °FSunny.3 mph47%30.21 "Hg10 mi
7:00 pm79 °FSunny.3 mph34%30.21 "Hg10 mi
6:30 pm82 °FSunny.3 mph30%30.21 "Hg10 mi
6:00 pm84 °FSunny.6 mph27%30.21 "Hg10 mi
5:30 pm86 °FSunny.6 mph24%30.21 "Hg10 mi
5:00 pm86 °FSunny.8 mph24%30.21 "Hg10 mi
4:30 pm86 °FPassing clouds.6 mph24%30.21 "HgN/A
4:00 pm88 °FSunny.6 mph24%30.21 "Hg10 mi
3:30 pm86 °FSunny.6 mph24%30.21 "Hg10 mi
3:00 pm88 °FPassing clouds.6 mph21%30.21 "HgN/A
2:30 pm88 °FSunny.3 mph22%30.21 "Hg10 mi
2:00 pm86 °FPassing clouds.6 mph24%30.24 "HgN/A
1:30 pm86 °FPassing clouds.3 mph24%30.24 "HgN/A
1:00 pm88 °FSunny.3 mph22%30.24 "Hg10 mi
12:30 pm86 °FSunny.1 mph25%30.24 "Hg10 mi
12:00 pm86 °FSunny.3 mph25%30.24 "Hg10 mi
11:30 am84 °FSunny.3 mph29%30.24 "Hg10 mi
11:00 am82 °FPassing clouds.3 mph30%30.24 "HgN/A
10:30 am82 °FSunny.3 mph32%30.24 "Hg10 mi
10:00 am79 °FSunny.3 mph39%30.24 "Hg10 mi
9:30 am77 °FSunny.3 mph42%30.27 "Hg10 mi
9:00 am73 °FSunny.1 mph47%30.27 "Hg10 mi
8:30 am73 °FSunny.3 mph44%30.24 "Hg10 mi
8:00 am72 °FSunny.3 mph50%30.24 "Hg10 mi
7:30 am70 °FSunny.3 mph53%30.24 "Hg10 mi
7:00 am66 °FSunny.1 mph64%30.24 "Hg10 mi
Weather by CustomWeather, © 2017

See weather overviewHow to use our weather pages